Location: Unspecified
(0.0000°N, 0.0000°E)
Time: 13:47:57
(UTC+00:00)

Vanguard 3 - Pass Details

Date: 12 December 2025
Orbit: 507 x 3207 km, 33.3° (Epoch: 22 January)

Event Time Altitude Azimuth Distance (km) Brightness Sun altitude
Rises 06:42:31 0° 223° (SW) 6,862 11.7 11.2°
Reaches altitude 10° 06:47:25 10° 216° (SW) 6,016 11.5 12.3°
Maximum altitude 07:05:35 44° 150° (SSE) 3,844 11.5 16.5°
Drops below altitude 10° 07:20:36 10° 83° (E) 5,094 12.4 19.9°
Sets 07:24:15 0° 76° (ENE) 5,784 12.3 20.7°
